Location: *
(50.3440°N, 18.6237°E)
Time: 06:57:47
(UTC+00:00)

ISS - Visible Passes

Search period start: 04 March 2021 00:00
Search period end: 14 March 2021 00:00
Orbit: 417 x 422 km, 51.6° (Epoch: 04 March)

Date Brightness Start Highest point End Pass type
(mag) Time Alt. Az. Time Alt. Az. Time Alt. Az.
04 Mar -3.3 03:09:46 59° NE 03:09:46 59° NE 03:12:42 10° E visible
04 Mar -3.8 04:42:53 10° WNW 04:46:16 85° SSW 04:49:38 10° ESE visible
05 Mar -1.0 02:24:06 19° ENE 02:24:06 19° ENE 02:25:12 10° ENE visible
05 Mar -3.8 03:57:03 27° WNW 03:58:46 81° NNE 04:02:09 10° E visible
06 Mar -3.6 03:11:24 70° NNE 03:11:24 70° NNE 03:14:37 10° E visible
06 Mar -3.3 04:44:46 10° WNW 04:48:02 48° SSW 04:51:17 10° SE visible
07 Mar -1.2 02:25:47 21° E 02:25:47 21° E 02:27:05 10° E visible
07 Mar -3.7 03:58:44 24° W 04:00:36 66° SSW 04:03:55 10° ESE visible
08 Mar -3.9 03:13:10 83° SSE 03:13:10 83° SSE 03:16:29 10° ESE visible
09 Mar -1.4 02:27:40 22° E 02:27:40 22° E 02:28:58 10° E visible
09 Mar -2.9 04:00:38 21° W 04:02:15 34° SSW 04:05:20 10° SE visible
10 Mar -3.3 03:15:14 45° S 03:15:14 45° S 03:18:05 10° SE visible
11 Mar -1.2 02:29:56 16° ESE 02:29:56 16° ESE 02:30:43 10° ESE visible
11 Mar -2.0 04:02:55 16° WSW 04:03:43 17° SW 04:05:58 10° S visible
12 Mar -1.8 03:17:48 18° S 03:17:48 18° S 03:19:10 10° SSE visible
